Location: Gilevgi
(36.8751°N, 30.0581°E)
Time: 04:36:18
(UTC+00:00)

Cosmos 1076 Rocket - Pass Details

Date: 11 December 2025
Orbit: 582 x 603 km, 82.5° (Epoch: 13 January)

Event Time Altitude Azimuth Distance (km) Brightness Sun altitude
Rises 16:04:49 0° 354° (N) 2,852 6.9 -15.8°
Reaches altitude 10° 16:07:02 10° 355° (N) 1,947 6.0 -16.2°
Maximum altitude 16:11:21 82° 83° (E) 613 3.4 -17.0°
Drops below altitude 10° 16:15:38 10° 171° (S) 1,939 6.2 -17.9°
Sets 16:17:50 0° 172° (S) 2,838 7.1 -18.3°
